Weather in Fuessen

Germany     47°34′10″N   10°42′01″E
В апреле 2022 года жителям России запретили посещать сайт meteo.paraplan.net по решению Генеральной прокуратуры. Аудитория сайта уменьшилась в 10 раз. Владельцы сайта не видят смысла в поддержке погодного сервера в таких условиях. Сайт будет закрыт в октябре.
temp.,
°C
wind,
m/s
gust,
m/s
humid.,
%
clouds,
%
prec.,
mm/h
press.,
hPa
HPBL,
m
25 september, sun
sun2523:00+6sse119677 1.6 101413
02:00+7s229596 1.5 101451
05:00+5s239594 0.0 101454
08:00+7s119397 0.2 101333
11:00+10n117978 0.1 1012624
14:00+10nnw2286100 0.9 1011490
17:00+8nnw2299100 2.4 1011194
20:00+6wnw2298100 12.1 1013417
26 september, mon
mon2623:00+5ssw2398100 7.7 1015150
02:00+5s2396100 8.3 1014121
05:00+4s2195100 0.0 101335
08:00+5ssw129498 0.1 101259
11:00+9wnw017644 0.3 1009772
14:00+8n2282100 0.6 1008325
17:00+7nne119185 0.4 1007113
20:00+5nnw1196100 0.8 100752
27 september, tue
tue2723:00+5sw119595 1.1 1007232
02:00+5s1297100 1.3 100499
05:00+4nw1399100 3.4 1004391
08:00+3sw2499100 8.1 1007209
11:00+3w1493100 0.3 1008488
14:00+7wnw296199 0.5 10051517
17:00+7nw2268100 0.3 1004642
20:00+3wnw119896 1.2 1007172
28 september, wed
wed2823:00+3ssw239655 0.1 1007221
02:00+1s239467 0.1 100653
05:000s3392100 0.0 100451
08:00+2sse3490100 0.1 1002103
11:00+5se1394100 1.7 1000188
14:00+6nnw2195100 3.7 1001362
17:00+4n1199100 2.2 1002161
20:00+4n11100100 2.4 1004119
29 september, thu
thu2923:00+3n12100100 1.4 1005296
02:00+2s01100100 4.7 1007124
05:00+2nnw01100100 0.9 1007226
08:00+3se0099100 1.1 1007208
11:00+5s1190100 0.1 1006433
14:00+5sse2286100 0.7 1006527
17:00+6sse1180100 0.3 1005571
20:00+3s1194100 0.4 100811